Regional Weather Roundup
Issued by NWS Glasgow, MT

Home | Current Version | Previous Version | Text Only | Print | Product List | Glossary On
Versions: 1 2 3 4 5 6 7 8 9 10 11 12 13 14 15 16 17 18 19 20 21 22 23 24 25 26 27 28 29 30 31 32 33 34 35 36 37 38 39 40 41 42 43 44 45 46 47 48 49 50
000
ASUS45 KGGW 270615
RWRGGW
HOURLY WEATHER ROUNDUP FOR NORTHEAST MONTANA
NATIONAL WEATHER SERVICE GLASGOW MONTANA
1100 PM MST MON JAN 26 2015

NOTE: "FAIR" INDICATES FEW OR NO CLOUDS BELOW 12,000 FEET WITH NO
SIGNIFICANT WEATHER AND/OR OBSTRUCTIONS TO VISISBILITY.

NORTHEAST MONTANA


CITY           SKY/WX    TMP DP  RH WIND       PRES   REMARKS
GLASGOW        PTCLDY    34  31  88 E9        29.84S
6HR MIN TEMP:  34; 6HR MAX TEMP:  47;

PLENTYWOOD       N/A     34  32  92 SE3         N/A
WOLF POINT     PTCLDY    31  28  89 S3        29.86S
JORDAN           N/A     30  27  88 W3        29.86S
WINNETT          N/A     36  30  79 SW2         N/A
SIDNEY         CLEAR     30  30 100 CALM      29.89S
GLENDIVE       CLEAR     34  28  80 S7        29.89F
MALTA            N/A     34  32  92 E1          N/A
SCOBEY           N/A     31  27  85 CALM      29.82F

FORT PECK REPORTS


CITY           SKY/WX    TMP DP  RH WIND       PRES   REMARKS
FORT PECK        N/A     40  32  73 SE7         N/A
THE PINES        N/A     41  32  70 SW5         N/A

SOUTHEAST MONTANA


CITY           SKY/WX    TMP DP  RH WIND       PRES   REMARKS
BILLINGS       PTCLDY    52  26  36 W20       29.99F
MILES CITY     CLEAR     41  31  67 S7        29.91S
BAKER          CLEAR     33  28  81 CALM      29.93S
LIVINGSTON     CLEAR     57  24  28 W29G40    30.05R

CENTRAL MONTANA


CITY           SKY/WX    TMP DP  RH WIND       PRES   REMARKS
HAVRE          MOCLDY    44  33  65 SW20      29.82S
LEWISTOWN      CLOUDY    45  30  55 SW13      29.94S
GREAT FALLS    PTCLDY    50  29  44 SW16      29.93S
CUT BANK       PTCLDY    51  23  33 SW10      29.87S
HELENA         CLEAR     35  29  78 SW3       30.05R
BUTTE          CLEAR     33  26  75 CALM      30.11F
BOZEMAN        CLEAR     32  27  81 SE7       30.09S

WESTERN MONTANA


CITY           SKY/WX    TMP DP  RH WIND       PRES   REMARKS
MISSOULA       CLEAR     29  26  89 CALM      30.07S
KALISPELL      NOT AVBL

NORTH DAKOTA


CITY           SKY/WX    TMP DP  RH WIND       PRES   REMARKS
WILLISTON      PTCLDY    29  27  92 CALM      29.88S
DICKINSON      CLEAR     35  30  82 S6        29.88F
MINOT          FAIR      30  27  88 CALM      29.91R
BISMARCK       PTCLDY    31  29  92 CALM      29.97S

SOUTHERN SASKATCHEWAN


CITY           SKY/WX    TMP DP  RH WIND       PRES   REMARKS
REGINA         MOCLDY    28  28 100 SE9       29.83S
ESTEVAN        PTCLDY    28  27  93 SE5       29.87S
SWIFT CURRENT  CLEAR     37  32  81 S13       29.75F



USA.gov is the U.S. government's official web portal to all federal, state and local government web resources and services.